YO6IKB-10 Weather Reports


time (UTC)temp
C
wind
direction
speed
KPH
gust
KPH
rain 1hr
cm
rain 24hr
cm
rain mn
cm
humidity
%
barometer
mb
20260903025202 12 292 0.0 3.2 0.00 0.00 0.00 82 1016.2
20260903024701 12 292 1.6 3.2 0.00 0.00 0.00 82 1016.1
20260903024201 12 292 0.0 0.0 0.00 0.00 0.00 82 1016.0
20260903023701 12 292 0.0 0.0 0.00 0.00 0.00 81 1016.0
20260903023200 12 292 0.0 1.6 0.00 0.00 0.00 81 1016.1
20260903022700 12 292 1.6 1.6 0.00 0.00 0.00 81 1016.2
20260903022200 12 292 1.6 1.6 0.00 0.00 0.00 81 1016.2
20260903021700 12 292 0.0 1.6 0.00 0.00 0.00 81 1016.2
20260903021159 12 292 0.0 0.0 0.00 0.00 0.00 81 1016.3
20260903020659 12 315 0.0 0.0 0.00 0.00 0.00 81 1016.3
20260903020159 12 292 0.0 0.0 0.00 0.00 0.00 81 1016.5
20260903015658 12 135 0.0 0.0 0.00 0.00 0.00 82 1016.4
20260903015158 12 292 0.0 0.0 0.00 0.00 0.00 82 1016.4
20260903014658 12 292 0.0 0.0 0.00 0.00 0.00 82 1016.3
20260903014157 13 292 0.0 0.0 0.00 0.00 0.00 82 1016.4
20260903013657 13 292 0.0 0.0 0.00 0.00 0.00 82 1016.3
20260903013157 12 292 0.0 1.6 0.00 0.00 0.00 82 1016.4
20260903012657 13 292 0.0 1.6 0.00 0.00 0.00 82 1016.3
20260903012156 12 292 1.6 1.6 0.00 0.00 0.00 82 1016.4
20260903011656 12 292 0.0 0.0 0.00 0.00 0.00 82 1016.3
20260903011156 80 292 0.0 1.6 0.00 0.00 0.00 82 1016.3
20260903010655 12 292 0.0 0.0 0.00 0.00 0.00 81 1016.3
20260903010155 12 292 0.0 0.0 0.00 0.00 0.00 81 1016.4
20260903005655 12 292 0.0 3.2 0.00 0.00 0.00 81 1016.3
20260903005155 12 292 3.2 3.2 0.00 0.00 0.00 80 1016.3
20260903004654 12 292 0.0 0.0 0.00 0.00 0.00 80 1016.3
20260903004154 13 292 0.0 0.0 0.00 0.00 0.00 79 1016.3
20260903003654 12 292 0.0 0.0 0.00 0.00 0.00 79 1016.3
20260903003153 13 292 0.0 1.6 0.00 0.00 0.00 79 1016.4
20260903002653 13 292 1.6 1.6 0.00 0.00 0.00 79 1016.4
20260903002153 13 292 0.0 3.2 0.00 0.00 0.00 79 1016.4
20260903001652 13 292 3.2 6.4 0.00 0.00 0.00 79 1016.5
20260903001152 13 292 3.2 3.2 0.00 0.00 0.00 79 1016.5
20260903000652 13 292 1.6 4.8 0.00 0.00 0.00 80 1016.5
20260903000152 13 337 0.0 3.2 0.00 0.00 0.00 80 1016.3
20260902235651 13 337 3.2 4.8 0.00 0.00 0.00 80 1016.4
20260902235151 13 337 0.0 4.8 0.00 0.00 0.00 80 1016.2
20260902234651 13 0 0.0 3.2 0.00 0.00 0.00 80 1016.2
20260902234150 13 337 1.6 4.8 0.00 0.00 0.00 79 1016.3
20260902233650 13 337 3.2 4.8 0.00 0.00 0.00 79 1016.2
20260902233150 13 22 0.0 3.2 0.00 0.00 0.00 79 1016.1
20260902232650 14 67 0.0 1.6 0.00 0.00 0.00 79 1016.1
20260902232149 14 67 0.0 0.0 0.00 0.00 0.00 79 1016.2
20260902231649 14 67 0.0 1.6 0.00 0.00 0.00 79 1016.2
20260902231149 14 67 0.0 3.2 0.00 0.00 0.00 79 1016.2
20260902230648 14 67 1.6 3.2 0.00 0.00 0.00 79 1016.1
20260902230148 14 0 0.0 3.2 0.00 0.00 0.00 78 1016.2
20260902225648 15 0 1.6 1.6 0.00 0.00 0.00 77 1016.3
20260902225147 15 337 0.0 0.0 0.00 0.00 0.00 77 1016.3
20260902224647 15 337 0.0 0.0 0.00 0.00 0.00 77 1016.3
20260902224147 15 337 0.0 1.6 0.00 0.00 0.00 77 1016.3
20260902223647 15 337 1.6 3.2 0.00 0.00 0.00 77 1016.2
20260902223146 15 337 1.6 3.2 0.00 0.00 0.00 77 1016.2
20260902222646 15 0 1.6 1.6 0.00 0.00 0.00 77 1016.3
20260902222146 15 337 0.0 1.6 0.00 0.00 0.00 77 1016.2
20260902221645 15 337 0.0 0.0 0.00 0.00 0.00 76 1016.2
20260902221145 15 337 0.0 4.8 0.00 0.00 0.00 76 1016.2
20260902220645 15 45 1.6 3.2 0.00 0.00 0.00 77 1016.2
20260902220145 15 22 1.6 6.4 0.00 0.00 0.00 77 1016.1
20260902215644 15 45 1.6 6.4 0.00 0.00 0.00 76 1016.2
20260902215144 15 292 3.2 3.2 0.00 0.00 0.00 76 1016.2
20260902214644 15 292 0.0 1.6 0.00 0.00 0.00 74 1016.2
20260902214143 16 292 0.0 1.6 0.00 0.00 0.00 73 1016.1
20260902213643 16 292 0.0 0.0 0.00 0.00 0.00 71 1016.1
20260902213143 16 292 0.0 0.0 0.00 0.00 0.00 71 1016.2
20260902212643 16 292 0.0 0.0 0.00 0.00 0.00 70 1016.2
20260902212142 16 292 0.0 1.6 0.00 0.00 0.00 71 1016.1
20260902211642 16 292 0.0 3.2 0.00 0.00 0.00 71 1016.0
20260902211142 16 292 1.6 1.6 0.00 0.00 0.00 71 1016.1
20260902210641 16 292 0.0 0.0 0.00 0.00 0.00 71 1016.0
20260902210141 16 292 0.0 1.6 0.00 0.00 0.00 71 1016.0
20260902205641 16 292 0.0 1.6 0.00 0.00 0.00 71 1016.0
20260902205140 16 292 0.0 3.2 0.00 0.00 0.00 71 1015.9
20260902204640 16 292 0.0 3.2 0.00 0.00 0.00 70 1015.9
20260902204140 17 292 0.0 1.6 0.00 0.00 0.00 68 1015.9
20260902203640 17 292 1.6 1.6 0.00 0.00 0.00 68 1016.0
20260902203139 17 292 1.6 3.2 0.00 0.00 0.00 67 1016.0
20260902202639 17 292 0.0 3.2 0.00 0.00 0.00 66 1016.0
20260902202139 17 292 0.0 0.0 0.00 0.00 0.00 65 1016.1
20260902201638 17 292 0.0 0.0 0.00 0.00 0.00 64 1016.0
20260902201138 17 292 0.0 0.0 0.00 0.00 0.00 63 1016.1
20260902200638 18 292 0.0 0.0 0.00 0.00 0.00 62 1016.1
20260902200138 18 292 0.0 1.6 0.00 0.00 0.00 63 1016.1
20260902195637 18 292 0.0 1.6 0.00 0.00 0.00 62 1016.1
20260902195137 18 292 0.0 0.0 0.00 0.00 0.00 61 1016.1
20260902194637 18 292 0.0 1.6 0.00 0.00 0.00 61 1016.1
20260902194136 18 292 0.0 1.6 0.00 0.00 0.00 61 1016.2
20260902193636 18 292 0.0 0.0 0.00 0.00 0.00 61 1016.1
20260902193136 18 292 0.0 0.0 0.00 0.00 0.00 61 1016.1
20260902192635 18 292 0.0 1.6 0.00 0.00 0.00 61 1016.1
20260902192135 18 292 1.6 1.6 0.00 0.00 0.00 61 1016.0
20260902191635 19 292 0.0 0.0 0.00 0.00 0.00 60 1016.1
20260902191135 19 292 0.0 3.2 0.00 0.00 0.00 60 1016.1
20260902190634 19 292 0.0 4.8 0.00 0.00 0.00 60 1016.1
20260902190134 19 292 0.0 3.2 0.00 0.00 0.00 60 1016.1
20260902185634 20 292 1.6 3.2 0.00 0.00 0.00 59 1016.2
20260902185133 20 292 3.2 3.2 0.00 0.00 0.00 59 1016.2
20260902184633 20 292 0.0 0.0 0.00 0.00 0.00 59 1016.2
20260902184133 20 292 0.0 1.6 0.00 0.00 0.00 59 1016.2
20260902183633 20 292 1.6 3.2 0.00 0.00 0.00 59 1016.1
20260902183132 20 292 1.6 1.6 0.00 0.00 0.00 58 1016.1
20260902182632 20 292 0.0 0.0 0.00 0.00 0.00 58 1016.0
20260902182132 20 292 0.0 0.0 0.00 0.00 0.00 58 1016.0
20260902181631 21 292 0.0 1.6 0.00 0.00 0.00 57 1015.9
20260902181131 21 292 0.0 0.0 0.00 0.00 0.00 56 1015.9